Regional Weather Roundup
Issued by NWS Midland/Odessa, TX

Home | Current Version | Previous Version | Text Only | Print | Product List | Glossary On
Versions: 1 2 3 4 5 6 7 8 9 10 11 12 13 14 15 16 17 18 19 20 21 22 23 24 25 26 27 28 29 30 31 32 33 34 35 36 37 38 39 40 41 42 43 44 45 46 47 48 49 50
000
ASUS44 KMAF 191910
RWRMAF
MIDLAND AREA WEATHER ROUNDUP
NATIONAL WEATHER SERVICE MIDLAND TX
100 PM CST THU JAN 19 2017

...IN SOUTHWEST TEXAS AND SOUTHEAST NEW MEXICO...

CITY           SKY/WX    TMP DP  RH WIND       PRES   REMARKS
ALPINE         SUNNY     59  28  30 W23G36    29.95F
ANDREWS        FAIR      61  32  33 W21G29    29.72F
ARTESIA        CLOUDY    61  32  33 SW26      29.74F
BIG SPRING     SUNNY     62  41  46 SW28      29.75F
CARLSBAD       CLOUDY    62  27  26 W28G43    29.75F
DRYDEN           N/A     70  31  23 SW26G38   29.81F
FORT STOCKTON  SUNNY     66  26  22 W28G37    29.82F
GUAD PASS      NOT AVBL
HOBBS          SUNNY     59  30  33 SW25      29.74F
MARFA          CLOUDY    56  29  35 W29G36    29.94F
MIDLAND AIRPK  SUNNY     65  33  30 W23G32    29.74F
MIDLAND INTL   SUNNY     65  34  31 W26G35    29.73F
ODESSA         SUNNY     64  33  31 W24G35    29.74F
PECOS          SUNNY     64  31  28 W32G39    29.80F
PRESIDIO       FAIR      64  33  32 SW12G17   29.94F
SEMINOLE       SUNNY     62  31  31 W22G29    29.72F
SNYDER         SUNNY     63  38  39 SW26      29.68F
WINK           SUNNY     64  31  28 W32G38    29.75F
$$
...OTHER STATIONS IN TEXAS...

CITY           SKY/WX    TMP DP  RH WIND       PRES   REMARKS
ABILENE        SUNNY     66  40  38 W22G32    29.68F
AMARILLO       SUNNY     56  25  30 NW15      29.58F
AUSTIN         PTSUNNY   63  55  75 S14       29.80F
BROWNSVILLE    CLOUDY    63  61  93 N7        29.88F
CORPUS CHRISTI CLOUDY    62  60  93 S6        29.86F
DALLAS FTW     MOSUNNY   60  51  72 S15       29.70F
DEL RIO        SUNNY     63  49  60 SE5       29.83F
EL PASO        PTSUNNY   56  30  37 W20G25    29.93F
HOUSTON INT    PTSUNNY   62  59  90 W5        29.82F
LUBBOCK        MOSUNNY   59  34  39 W29G40    29.62F
SAN ANGELO     SUNNY     69  36  29 W24G35    29.74F
SAN ANTONIO    MOSUNNY   65  52  62 S13       29.83F
WACO           SUNNY     62  53  72 S13       29.76F
WICHITA FALLS  NOT AVBL
$$
...OTHER LOCATIONS IN NEW MEXICO...

CITY           SKY/WX    TMP DP  RH WIND       PRES   REMARKS
ALAMAGORDO     CLOUDY    50  30  46 CALM      29.92F
ALBUQUERQUE    PTSUNNY   44  29  55 VRB3      29.89F
CANNON AFB     SUNNY     56  28  34 W24       29.63F
CLOVIS         SUNNY     59  30  33 W22       29.62F
HOLLOMAN AFB   SUNNY     53  33  46 VRB6      29.93F
ROSWELL        CLOUDY    62  22  21 W24G33    29.72F
RUIDOSO        CLOUDY    45  16  31 W17G25    29.83F WCI  37
SANTA FE       CLOUDY    41  26  55 N10       29.85F WCI  35
TRUTH OR CONSE MOSUNNY   50  27  40 SW7       29.89F
TUCUMCARI      SUNNY     61  22  22 W15       29.60F
$$



USA.gov is the U.S. government's official web portal to all federal, state and local government web resources and services.